ROMMA est une association bénévole à but non lucratif. Votre soutien est indispensable : ADHERER à ROMMA ou FAIRE un DON

Voiron - (38, Isère)

Voironnais (300 m)   Longitude: 05° 35' E   Latitude: 45° 23' N Station partenaire n°109
 

Détail journalier du     <<     >>

Température Precipitation Humidité Pression Vent Dir Rafale Dir. rafale Ensol.
Heure (°C) (mm) (%) (hPa) (km/h) (km/h) (min)
01:00 9.0085101805N0
02:00 8.408710181N5N0
03:00 8.108810182N8SSE0
04:00 7.708910181ONO6NO0
05:00 7.408810192SSO6SSO0
06:00 7.108810191SO5NO0
07:00 6.709010181ONO6ONO0
08:00 7.908510173SSE15NO0
09:00 8.308510172S10SSE0
10:00 9.608110196SE21SE0
11:00 11.107510183ONO10SSE0
12:00 11.307610186SE19S0
13:00 12.407410174SE16E0
14:00 14.206810163OSO10SSE0
15:00 14.007110163SSO13SSO0
16:00 14.707110165S11S0
17:00 14.807010152S10S0
18:00 14.807010152SE10S0
19:00 14.607410151SE5SE0
20:00 13.9079101605SE0
21:00 13.408310161SE5SE0
22:00 13.608010161SE8NNO0
23:00 13.608110162SSO6SSO0
minuit 15.607010177NE16E0

Graphique du 04-10-2019

 

Serveur OMMA